Regional Weather Roundup
Issued by NWS Cleveland, OH

Home | Current Version | Previous Version | Graphics & Text | Print | Product List | Glossary On
Versions: 1 2 3 4 5 6 7 8 9 10 11 12 13 14 15 16 17 18 19 20 21 22 23 24 25 26 27 28 29 30 31 32 33 34 35 36 37 38 39 40 41 42 43 44 45 46 47 48 49 50
000
ASUS41 KCLE 280012
RWRCLE
OHIO REGIONAL WEATHER ROUNDUP
NATIONAL WEATHER SERVICE WILMINGTON, OH
800 PM EDT THU JUL 27 2017

NOTE: "FAIR" INDICATES FEW OR NO CLOUDS BELOW 12,000 FEET WITH NO
SIGNIFICANT WEATHER AND/OR OBSTRUCTIONS TO VISIBILITY.

OHZ001>008-015>018-024>027-034-035-043-044-280100-
   NORTHWEST OHIO

CITY           SKY/WX    TMP DP  RH WIND       PRES   REMARKS
DEFIANCE       FAIR      79  70  74 E3        29.88R
FINDLAY        FAIR      80  67  64 E7        29.87S
TOLEDO EXPRESS FAIR      79  65  62 E7        29.88R
TOLEDO EXEC    FAIR      80  66  62 E6        29.89R
LIMA           CLOUDY    75  73  93 CALM      29.88R
$$

OHZ009>014-019>023-028>033-038-089-280100-
   NORTHEAST OHIO

CITY           SKY/WX    TMP DP  RH WIND       PRES   REMARKS
CLE-HOPKINS    FAIR      80  64  58 NE9       29.90S
CLE-LAKEFRONT  FAIR      77  66  68 NE10      29.88R
CUY CO. ARPT   CLEAR     81  63  54 NE8       29.90S
LORAIN-ELYRIA  FAIR      77  58  51 NE5       29.89S
ASHTABULA      FAIR      77  65  66 NE3       29.91R
AKRON-CANTON   MOCLDY    75  68  78 W10       29.90R
WOOSTER        FAIR      72  69  90 SW6       29.91R
MANSFIELD      LGT RAIN  73  72  96 E5        29.91S FOG
YOUNGSTOWN     FAIR      80  62  54 N7        29.89R
$$

OHZ042-051>053-060>062-070>072-077>081-280100-
  SOUTHWEST OHIO

CITY           SKY/WX    TMP DP  RH WIND       PRES   REMARKS
CINC-COVINGTON LGT RAIN  77  74  90 N15       29.88S FOG
CINC-LUNKEN    RAIN      77  73  87 NW15      29.88R FOG
HAMILTON       CLOUDY    79  72  79 W8        29.89R
DAYTON         CLOUDY    80  71  74 NE5       29.89R
WRIGHT-PAT AFB MOCLDY    80  72  77 CALM      29.87R
DAYTON GENERAL CLOUDY    76  72  87 W6        29.88R
WILMINGTON     MOCLDY    75  74  96 W8        29.88S
$$

OHZ036-037-039>041-045>050-054>059-063>069-073>076-082>088-280100-
  CENTRAL AND SOUTHEAST OHIO

CITY           SKY/WX    TMP DP  RH WIND       PRES   REMARKS
COLUMBUS       CLOUDY    72  72 100 E7        29.88R
OSU AIRPORT    CLOUDY    72  72 100 E6        29.89R
BOLTON FIELD   CLOUDY    73  72  99 E5        29.89R FOG
RICKENBACK AFB LGT RAIN  71  72 100 E6        29.87R
NEWARK         CLOUDY    72  69  90 E3        29.89S
MARION         MOCLDY    76  69  79 SE5       29.90R
LANCASTER      HVY RAIN  72  71  97 E8        29.88S VSB 1
ZANESVILLE     LGT RAIN  72  70  93 S5        29.90S
NEW PHILLY     CLOUDY    73  71  93 CALM      29.91R
$$




USA.gov is the U.S. government's official web portal to all federal, state and local government web resources and services.